TimeCDT,TemperatureF,Dew PointF,Humidity,Sea Level PressureIn,VisibilityMPH,Wind Direction,Wind SpeedMPH,Gust SpeedMPH,PrecipitationIn,Events,Conditions,WindDirDegrees,DateUTC
12:53 AM,41.0,21.9,47,30.10,10.0,SSW,3.5,-,N/A,,Clear,210,2012-10-08 05:53:00
1:53 AM,39.9,19.0,43,30.10,10.0,SSW,4.6,-,N/A,,Clear,210,2012-10-08 06:53:00
2:53 AM,39.9,19.9,45,30.08,10.0,SSW,4.6,-,N/A,,Clear,200,2012-10-08 07:53:00
3:53 AM,39.9,21.0,47,30.07,10.0,SSW,5.8,-,N/A,,Clear,200,2012-10-08 08:53:00
4:53 AM,39.0,23.0,53,30.06,10.0,Variable,3.5,-,N/A,,Clear,0,2012-10-08 09:53:00
5:53 AM,37.9,23.0,55,30.07,10.0,SSW,6.9,-,N/A,,Clear,200,2012-10-08 10:53:00
6:53 AM,37.0,24.1,59,30.06,10.0,Calm,Calm,-,N/A,,Clear,0,2012-10-08 11:53:00
7:53 AM,39.0,25.0,57,30.06,10.0,Variable,5.8,-,N/A,,Clear,0,2012-10-08 12:53:00
8:53 AM,42.1,26.1,53,30.06,10.0,South,8.1,-,N/A,,Clear,190,2012-10-08 13:53:00
9:53 AM,48.0,28.0,46,30.04,10.0,South,13.8,18.4,N/A,,Clear,180,2012-10-08 14:53:00
10:53 AM,53.1,28.9,40,30.02,10.0,SSW,11.5,24.2,N/A,,Clear,210,2012-10-08 15:53:00
11:53 AM,55.9,30.0,37,29.99,10.0,SSW,18.4,28.8,N/A,,Partly Cloudy,200,2012-10-08 16:53:00
12:53 PM,57.0,28.9,34,29.97,10.0,SSW,17.3,31.1,N/A,,Clear,200,2012-10-08 17:53:00
1:53 PM,60.1,30.0,32,29.94,10.0,SSW,12.7,28.8,N/A,,Mostly Cloudy,200,2012-10-08 18:53:00
2:53 PM,60.1,30.0,32,29.91,10.0,SSW,13.8,23.0,N/A,,Scattered Clouds,200,2012-10-08 19:53:00
3:53 PM,60.1,30.0,32,29.90,10.0,SSW,17.3,26.5,N/A,,Scattered Clouds,200,2012-10-08 20:53:00
4:53 PM,60.1,30.0,32,29.89,10.0,South,18.4,24.2,N/A,,Partly Cloudy,190,2012-10-08 21:53:00
5:53 PM,57.9,30.0,35,29.89,10.0,South,18.4,26.5,N/A,,Partly Cloudy,190,2012-10-08 22:53:00
6:53 PM,57.0,30.0,36,29.89,10.0,South,16.1,24.2,N/A,,Partly Cloudy,190,2012-10-08 23:53:00
7:53 PM,55.9,28.9,36,29.90,10.0,South,13.8,25.3,N/A,,Clear,190,2012-10-09 00:53:00
8:53 PM,55.4,30.2,38,29.89,10.0,South,16.1,24.2,N/A,Rain,Light Rain,190,2012-10-09 01:53:00
9:53 PM,55.0,30.0,38,29.90,10.0,South,17.3,24.2,0.00,,Partly Cloudy,190,2012-10-09 02:53:00
10:53 PM,54.0,30.0,40,29.89,10.0,South,16.1,24.2,N/A,,Partly Cloudy,190,2012-10-09 03:53:00
11:53 PM,53.1,30.9,43,29.88,10.0,South,12.7,21.9,N/A,,Clear,190,2012-10-09 04:53:00